sat.trackr.live / text

‹ back to catalog

STARLINK-32160

NORAD 60261 · 2024-131G

PAYLOAD ACTIVE UNKNOWN

§ Identity

Operator
Country
US
Launch date
2024-07-27
Launch site
AFETR
Launch vehicle
Mass (kg)
RCS (m²)

Purposes: comms

External: N2YO · Heavens-Above · Gunter

§ Orbital elements

Epoch: 2026-09-21T14:39:39.617280Z

Period
93.85 min
Inclination
53.1595°
Eccentricity
0.0001474
Mean motion
15.34387680 rev/d
Perigee alt
461.7 km
Apogee alt
463.7 km
Semi-major
6,840.9 km
B*
-1.5934e-6
RAAN
220.3647°
Arg perigee
90.1916°
Mean anomaly
269.9256°
Rev number
12,179

§ Raw data

STARLINK-321601 60261U 24131G   26264.61087520 -.00000430  00000+0 -15934-5 0  99902 60261  53.1595 220.3647 0001474  90.1916 269.9256 15.34387680121795

JSON: /api/v1/satellites/60261 · /tle

For live sub-satellite position, see the globe view (requires WebGL).

§ Visibility from observer

Set your observer location to see the next 7 days of passes ≥ 10°. The values pass through the URL so the page stays shareable.

No JS? Fill the form by hand. The geolocation button needs JavaScript.